Find Starlink 32752

NORAD ID: 62567 Int'l Des: 2025-006 Owner: SPXS Country: US Constellation: starlink operational
LEOCIRCULAR

实时位置

正在加载3D地球...

关于 Starlink 32752

正在加载描述...

即将过境

Passes for default location (London). Set your location on the main map for personalized predictions.

高度历史

Loading altitude history...

两行轨道根数

1 62567U 25006P 26123.88880020 .00017197 00000-0 63271-3 0 9994
2 62567 43.0029 340.9312 0000680 241.2618 118.8166 15.27593787 73304
Epoch: May 3, 2026 • Age: 7 hours

当前状态

高度 493.2 km
速度 7.62 km/s
星下点 -36.62°S, 80.29°W
发射日期 Jan 10, 2025
运行时间 1.3 years
类型 internet

技术详情

分类 Payload
质量 730.00 kg
干质量 700.00 kg
总质量 730.00 kg
长度 0.30 m
直径 4.10 m
跨度 29.00 m
形状 Box + pan
制造商 SPXS
平台类型 Starlink V2M
阶段状态 In Orbit
所有者/国家 SPXS/US

Most Searched